| time (UTC) | temp F | wind direction | speed knots | gust knots | rain 1hr in | rain 24hr in | rain mn in | humidity % | barometer mb |
| 20260903150016 | 91 | 248 | 1.7 | 4.3 | 0.00 | 0.00 | 0.00 | 64 | 1017.5 |
| 20260903145036 | 90 | 248 | 0.9 | 3.5 | 0.00 | 0.00 | 0.00 | 66 | 1017.5 |
| 20260903144016 | 89 | 203 | 0.9 | 1.7 | 0.00 | 0.00 | 0.00 | 67 | 1017.5 |
| 20260903143016 | 87 | 0.0 | 2.6 | 0.00 | 0.00 | 0.00 | 71 | 1017.5 | |
| 20260903142036 | 86 | 0.0 | 1.7 | 0.00 | 0.00 | 0.00 | 71 | 1017.6 | |
| 20260903141016 | 85 | 248 | 0.9 | 2.6 | 0.00 | 0.00 | 0.00 | 73 | 1017.6 |
| 20260903140016 | 83 | 225 | 1.7 | 4.3 | 0.00 | 0.00 | 0.00 | 77 | 1017.7 |
| 20260903135016 | 82 | 248 | 0.9 | 4.3 | 0.00 | 0.00 | 0.00 | 79 | 1017.6 |
| 20260903134016 | 80 | 0.0 | 0.0 | 0.00 | 0.00 | 0.00 | 83 | 1017.8 | |
| 20260903133016 | 79 | 0.0 | 0.0 | 0.00 | 0.00 | 0.00 | 87 | 1017.7 | |
| 20260903132016 | 77 | 0.0 | 0.0 | 0.00 | 0.00 | 0.00 | 90 | 1017.7 | |
| 20260903131016 | 76 | 0.0 | 0.0 | 0.00 | 0.00 | 0.00 | 92 | 1017.9 | |
| 20260903130017 | 75 | 0.0 | 0.0 | 0.00 | 0.00 | 0.00 | 93 | 1018.0 | |
| 20260903125016 | 75 | 0.0 | 0.0 | 0.00 | 0.00 | 0.00 | 93 | 1018.0 | |
| 20260903124016 | 75 | 0.0 | 0.0 | 0.00 | 0.00 | 0.00 | 94 | 1018.0 | |
| 20260903123016 | 74 | 0.0 | 0.0 | 0.00 | 0.00 | 0.00 | 94 | 1018.0 | |
| 20260903122016 | 74 | 0.0 | 0.0 | 0.00 | 0.00 | 0.00 | 94 | 1017.8 | |
| 20260903121036 | 74 | 0.0 | 0.0 | 0.00 | 0.00 | 0.00 | 94 | 1017.9 | |
| 20260903120036 | 74 | 0.0 | 0.0 | 0.00 | 0.00 | 0.00 | 93 | 1018.0 | |
| 20260903115056 | 73 | 0.0 | 0.0 | 0.00 | 0.00 | 0.00 | 93 | 1018.0 | |
| 20260903114016 | 73 | 0.0 | 0.0 | 0.00 | 0.00 | 0.00 | 93 | 1017.9 | |
| 20260903113016 | 73 | 0.0 | 0.0 | 0.00 | 0.00 | 0.00 | 93 | 1017.9 | |
| 20260903112016 | 73 | 0.0 | 0.0 | 0.00 | 0.00 | 0.00 | 93 | 1017.7 | |
| 20260903111016 | 74 | 0.0 | 0.0 | 0.00 | 0.00 | 0.00 | 93 | 1017.6 | |
| 20260903110016 | 74 | 0.0 | 0.0 | 0.00 | 0.00 | 0.00 | 93 | 1017.6 | |
| 20260903105016 | 74 | 0.0 | 0.0 | 0.00 | 0.00 | 0.00 | 93 | 1017.3 | |
| 20260903104016 | 74 | 0.0 | 0.0 | 0.00 | 0.00 | 0.00 | 93 | 1017.2 | |
| 20260903103016 | 74 | 0.0 | 0.0 | 0.00 | 0.00 | 0.00 | 92 | 1017.3 | |
| 20260903102036 | 74 | 0.0 | 0.0 | 0.00 | 0.00 | 0.00 | 92 | 1017.4 | |
| 20260903101016 | 74 | 0.0 | 0.0 | 0.00 | 0.00 | 0.00 | 92 | 1017.3 | |
| 20260903100016 | 74 | 0.0 | 0.0 | 0.00 | 0.00 | 0.00 | 92 | 1017.3 | |
| 20260903095036 | 74 | 0.0 | 0.0 | 0.00 | 0.00 | 0.00 | 92 | 1017.3 | |
| 20260903094016 | 74 | 0.0 | 0.0 | 0.00 | 0.00 | 0.00 | 92 | 1017.3 | |
| 20260903093016 | 74 | 0.0 | 0.0 | 0.00 | 0.00 | 0.00 | 92 | 1017.2 | |
| 20260903092016 | 75 | 0.0 | 0.0 | 0.00 | 0.00 | 0.00 | 92 | 1017.2 | |
| 20260903091016 | 75 | 0.0 | 0.0 | 0.00 | 0.00 | 0.00 | 92 | 1017.2 | |
| 20260903090016 | 75 | 0.0 | 0.0 | 0.00 | 0.00 | 0.00 | 91 | 1017.1 | |
| 20260903085016 | 75 | 0.0 | 0.0 | 0.00 | 0.00 | 0.00 | 91 | 1017.0 | |
| 20260903084036 | 75 | 0.0 | 0.0 | 0.00 | 0.00 | 0.00 | 91 | 1017.0 | |
| 20260903083056 | 75 | 0.0 | 0.0 | 0.00 | 0.00 | 0.00 | 91 | 1017.0 | |
| 20260903082016 | 75 | 0.0 | 0.0 | 0.00 | 0.00 | 0.00 | 91 | 1016.9 | |
| 20260903081016 | 75 | 0.0 | 0.0 | 0.00 | 0.00 | 0.00 | 90 | 1016.9 | |
| 20260903080016 | 75 | 0.0 | 0.0 | 0.00 | 0.00 | 0.00 | 90 | 1016.7 | |
| 20260903075016 | 76 | 0.0 | 0.0 | 0.00 | 0.00 | 0.00 | 90 | 1016.8 | |
| 20260903074016 | 76 | 0.0 | 0.0 | 0.00 | 0.00 | 0.00 | 90 | 1016.8 | |
| 20260903073016 | 76 | 0.0 | 0.0 | 0.00 | 0.00 | 0.00 | 89 | 1016.8 | |
| 20260903072016 | 76 | 0.0 | 0.0 | 0.00 | 0.00 | 0.00 | 89 | 1016.7 | |
| 20260903071016 | 76 | 0.0 | 0.0 | 0.00 | 0.00 | 0.00 | 89 | 1016.6 | |
| 20260903070056 | 76 | 0.0 | 0.0 | 0.00 | 0.00 | 0.00 | 89 | 1016.5 | |
| 20260903065016 | 77 | 0.0 | 0.0 | 0.00 | 0.00 | 0.00 | 88 | 1016.7 | |
| 20260903064016 | 77 | 0.0 | 0.0 | 0.00 | 0.00 | 0.00 | 88 | 1016.6 | |
| 20260903063036 | 77 | 0.0 | 0.0 | 0.00 | 0.00 | 0.00 | 87 | 1016.6 | |
| 20260903062016 | 77 | 0.0 | 0.0 | 0.00 | 0.00 | 0.00 | 86 | 1016.6 | |
| 20260903061016 | 77 | 0.0 | 0.0 | 0.00 | 0.00 | 0.00 | 86 | 1016.4 | |
| 20260903060016 | 78 | 0.0 | 0.0 | 0.00 | 0.00 | 0.00 | 85 | 1016.6 | |
| 20260903055016 | 78 | 0.0 | 0.0 | 0.00 | 0.00 | 0.00 | 85 | 1016.5 | |
| 20260903054016 | 78 | 0.0 | 0.0 | 0.00 | 0.00 | 0.00 | 85 | 1016.6 | |
| 20260903053016 | 78 | 0.0 | 0.0 | 0.00 | 0.00 | 0.00 | 85 | 1016.5 | |
| 20260903052016 | 79 | 0.0 | 0.0 | 0.00 | 0.00 | 0.00 | 84 | 1016.5 | |
| 20260903051016 | 79 | 0.0 | 0.0 | 0.00 | 0.00 | 0.00 | 84 | 1016.5 | |
| 20260903050016 | 79 | 0.0 | 0.0 | 0.00 | 0.00 | 0.00 | 84 | 1016.5 | |
| 20260903045016 | 80 | 0.0 | 0.0 | 0.00 | 0.00 | 0.00 | 83 | 1016.6 | |
| 20260903044016 | 80 | 0.0 | 0.0 | 0.00 | 0.00 | 0.00 | 83 | 1016.6 | |
| 20260903043036 | 80 | 0.0 | 0.0 | 0.00 | 0.00 | 0.00 | 83 | 1016.5 | |
| 20260903042016 | 80 | 0.0 | 0.0 | 0.00 | 0.00 | 0.00 | 83 | 1016.5 | |
| 20260903041036 | 80 | 0.0 | 0.0 | 0.00 | 0.00 | 0.00 | 83 | 1016.4 | |
| 20260903040016 | 81 | 0.0 | 0.0 | 0.00 | 0.00 | 0.00 | 82 | 1016.5 | |
| 20260903035016 | 81 | 0.0 | 0.0 | 0.00 | 0.00 | 0.00 | 82 | 1016.5 | |
| 20260903033016 | 81 | 0.0 | 0.0 | 0.00 | 0.00 | 0.00 | 81 | 1016.4 | |
| 20260903032016 | 81 | 0.0 | 0.0 | 0.00 | 0.00 | 0.00 | 81 | 1016.3 | |
| 20260903031016 | 81 | 0.0 | 0.0 | 0.00 | 0.00 | 0.00 | 80 | 1016.4 | |
| 20260903030016 | 82 | 0.0 | 0.0 | 0.00 | 0.00 | 0.00 | 79 | 1016.5 | |
| 20260903025016 | 82 | 0.0 | 0.0 | 0.00 | 0.00 | 0.00 | 78 | 1016.4 | |
| 20260903024036 | 82 | 0.0 | 0.0 | 0.00 | 0.00 | 0.00 | 78 | 1016.4 | |
| 20260903023016 | 83 | 0.0 | 0.0 | 0.00 | 0.00 | 0.00 | 77 | 1016.2 | |
| 20260903022016 | 83 | 0.0 | 0.0 | 0.00 | 0.00 | 0.00 | 76 | 1016.3 | |
| 20260903021016 | 83 | 0.0 | 0.0 | 0.00 | 0.00 | 0.00 | 75 | 1016.4 | |
| 20260903020016 | 84 | 0.0 | 0.0 | 0.00 | 0.00 | 0.00 | 75 | 1016.4 | |
| 20260903015016 | 84 | 0.0 | 0.0 | 0.00 | 0.00 | 0.00 | 75 | 1016.3 | |
| 20260903014016 | 85 | 0.0 | 0.0 | 0.00 | 0.00 | 0.00 | 75 | 1016.3 | |
| 20260903013036 | 85 | 0.0 | 0.0 | 0.00 | 0.00 | 0.00 | 75 | 1016.1 | |
| 20260903012036 | 85 | 0.0 | 0.0 | 0.00 | 0.00 | 0.00 | 73 | 1016.0 | |
| 20260903011016 | 85 | 0.0 | 0.0 | 0.00 | 0.00 | 0.00 | 73 | 1015.9 | |
| 20260903010016 | 85 | 0.0 | 0.0 | 0.00 | 0.00 | 0.00 | 73 | 1015.9 | |
| 20260903005016 | 86 | 0.0 | 0.0 | 0.00 | 0.00 | 0.00 | 72 | 1015.9 | |
| 20260903004016 | 87 | 0.0 | 0.9 | 0.00 | 0.00 | 0.00 | 71 | 1015.9 | |
| 20260903003016 | 88 | 0.0 | 0.0 | 0.00 | 0.00 | 0.00 | 69 | 1015.9 | |
| 20260903002016 | 88 | 0.0 | 0.0 | 0.00 | 0.00 | 0.00 | 67 | 1015.9 | |
| 20260903001016 | 90 | 0.0 | 0.0 | 0.00 | 0.00 | 0.00 | 64 | 1015.9 | |
| 20260903000016 | 91 | 0.0 | 0.9 | 0.00 | 0.00 | 0.00 | 61 | 1015.8 | |
| 20260902235016 | 92 | 248 | 0.9 | 2.6 | 0.00 | 0.00 | 0.00 | 55 | 1015.7 |
| 20260902234016 | 93 | 248 | 1.7 | 4.3 | 0.00 | 0.00 | 0.00 | 53 | 1015.9 |
| 20260902233016 | 93 | 248 | 1.7 | 5.2 | 0.00 | 0.00 | 0.00 | 52 | 1015.8 |
| 20260902232016 | 94 | 248 | 1.7 | 3.5 | 0.00 | 0.00 | 0.00 | 51 | 1015.9 |
| 20260902231016 | 94 | 248 | 2.6 | 5.2 | 0.00 | 0.00 | 0.00 | 51 | 1015.9 |
| 20260902230016 | 94 | 248 | 2.6 | 6.1 | 0.00 | 0.00 | 0.00 | 51 | 1015.9 |
| 20260902225016 | 95 | 248 | 2.6 | 5.2 | 0.00 | 0.00 | 0.00 | 50 | 1016.0 |
| 20260902224016 | 95 | 248 | 2.6 | 6.1 | 0.00 | 0.00 | 0.00 | 51 | 1016.0 |
| 20260902223016 | 95 | 248 | 2.6 | 5.2 | 0.00 | 0.00 | 0.00 | 50 | 1015.9 |
| 20260902222056 | 96 | 248 | 2.6 | 7.0 | 0.00 | 0.00 | 0.00 | 50 | 1016.2 |
| 20260902221016 | 96 | 248 | 2.6 | 7.8 | 0.00 | 0.00 | 0.00 | 51 | 1016.2 |
| 20260902220056 | 96 | 248 | 3.5 | 7.0 | 0.00 | 0.00 | 0.00 | 49 | 1016.1 |
| 20260902215016 | 96 | 248 | 2.6 | 6.1 | 0.00 | 0.00 | 0.00 | 49 | 1016.1 |
| 20260902214016 | 96 | 248 | 2.6 | 7.0 | 0.00 | 0.00 | 0.00 | 49 | 1016.3 |
| 20260902213016 | 97 | 270 | 2.6 | 8.7 | 0.00 | 0.00 | 0.00 | 50 | 1016.3 |
| 20260902212016 | 97 | 248 | 2.6 | 7.0 | 0.00 | 0.00 | 0.00 | 50 | 1016.5 |
| 20260902211016 | 97 | 248 | 2.6 | 7.0 | 0.00 | 0.00 | 0.00 | 50 | 1016.5 |
| 20260902210016 | 97 | 248 | 2.6 | 8.7 | 0.00 | 0.00 | 0.00 | 49 | 1016.7 |
| 20260902205016 | 97 | 248 | 3.5 | 7.0 | 0.00 | 0.00 | 0.00 | 49 | 1016.7 |
| 20260902204036 | 97 | 248 | 3.5 | 10.4 | 0.00 | 0.00 | 0.00 | 48 | 1016.7 |
| 20260902203016 | 98 | 248 | 4.3 | 9.6 | 0.00 | 0.00 | 0.00 | 49 | 1016.6 |
| 20260902202036 | 97 | 248 | 4.3 | 9.6 | 0.00 | 0.00 | 0.00 | 47 | 1017.0 |
| 20260902201036 | 98 | 248 | 3.5 | 7.8 | 0.00 | 0.00 | 0.00 | 47 | 1017.1 |
| 20260902200016 | 97 | 248 | 4.3 | 8.7 | 0.00 | 0.00 | 0.00 | 48 | 1017.2 |
| 20260902195036 | 98 | 248 | 3.5 | 9.6 | 0.00 | 0.00 | 0.00 | 48 | 1017.2 |
| 20260902194016 | 98 | 248 | 2.6 | 9.6 | 0.00 | 0.00 | 0.00 | 47 | 1017.3 |
| 20260902193016 | 98 | 248 | 1.7 | 6.1 | 0.00 | 0.00 | 0.00 | 50 | 1017.4 |
| 20260902192016 | 97 | 248 | 3.5 | 9.6 | 0.00 | 0.00 | 0.00 | 49 | 1017.5 |
| 20260902191016 | 98 | 248 | 3.5 | 7.8 | 0.00 | 0.00 | 0.00 | 48 | 1017.5 |
| 20260902190016 | 97 | 248 | 2.6 | 7.8 | 0.00 | 0.00 | 0.00 | 50 | 1017.7 |
| 20260902185016 | 97 | 225 | 2.6 | 7.8 | 0.00 | 0.00 | 0.00 | 52 | 1017.7 |
| 20260902184017 | 98 | 248 | 3.5 | 7.0 | 0.00 | 0.00 | 0.00 | 52 | 1017.8 |
| 20260902183016 | 97 | 248 | 2.6 | 7.0 | 0.00 | 0.00 | 0.00 | 54 | 1017.9 |
| 20260902182036 | 97 | 248 | 2.6 | 7.0 | 0.00 | 0.00 | 0.00 | 51 | 1017.9 |
| 20260902181016 | 96 | 270 | 2.6 | 8.7 | 0.00 | 0.00 | 0.00 | 53 | 1017.9 |
| 20260902180016 | 96 | 248 | 1.7 | 7.8 | 0.00 | 0.00 | 0.00 | 51 | 1018.0 |
| 20260902175016 | 95 | 248 | 2.6 | 6.1 | 0.00 | 0.00 | 0.00 | 55 | 1018.1 |
| 20260902174016 | 98 | 270 | 2.6 | 7.8 | 0.00 | 0.00 | 0.00 | 50 | 1018.2 |
| 20260902173056 | 98 | 248 | 3.5 | 7.8 | 0.00 | 0.00 | 0.00 | 50 | 1018.5 |
| 20260902172016 | 97 | 248 | 3.5 | 7.8 | 0.00 | 0.00 | 0.00 | 52 | 1018.6 |
| 20260902171016 | 97 | 248 | 3.5 | 7.0 | 0.00 | 0.00 | 0.00 | 51 | 1018.6 |
| 20260902170016 | 98 | 248 | 3.5 | 7.0 | 0.00 | 0.00 | 0.00 | 51 | 1018.7 |
| 20260902165036 | 97 | 248 | 3.5 | 7.0 | 0.00 | 0.00 | 0.00 | 52 | 1019.0 |
| 20260902164016 | 97 | 248 | 1.7 | 6.1 | 0.00 | 0.00 | 0.00 | 51 | 1019.1 |
| 20260902163016 | 96 | 248 | 2.6 | 7.0 | 0.00 | 0.00 | 0.00 | 55 | 1019.1 |
| 20260902162016 | 96 | 248 | 3.5 | 7.0 | 0.00 | 0.00 | 0.00 | 55 | 1019.1 |
| 20260902161016 | 95 | 248 | 3.5 | 7.8 | 0.00 | 0.00 | 0.00 | 56 | 1019.1 |
| 20260902160016 | 95 | 248 | 2.6 | 6.1 | 0.00 | 0.00 | 0.00 | 54 | 1019.2 |
| 20260902155016 | 94 | 248 | 2.6 | 7.0 | 0.00 | 0.00 | 0.00 | 56 | 1019.3 |
| 20260902154016 | 94 | 248 | 2.6 | 8.7 | 0.00 | 0.00 | 0.00 | 60 | 1019.3 |
| 20260902153016 | 93 | 248 | 2.6 | 7.8 | 0.00 | 0.00 | 0.00 | 60 | 1019.4 |
| 20260902152056 | 92 | 248 | 2.6 | 6.1 | 0.00 | 0.00 | 0.00 | 61 | 1019.3 |
| 20260902151016 | 92 | 248 | 2.6 | 7.0 | 0.00 | 0.00 | 0.00 | 63 | 1019.3 |